Location: Six Mile Lake
(44.9000°N, 79.7170°W)
Time: 03:30:57
(UTC-04:00)

UKube-1 - Pass Details

Date: 01 July 2022
Orbit: 608 x 615 km, 98.4° (Epoch: 17 August)

Event Time Altitude Azimuth Distance (km) Brightness Sun altitude
Rises 00:20:34 0° 2° (N) 2,896 ? -20.5°
Reaches altitude 10° 00:23:04 10° 348° (NNW) 1,985 ? -20.6°
Maximum altitude 00:26:32 24° 295° (WNW) 1,279 ? -20.8°
Enters shadow 00:29:47 11° 243° (WSW) 1,908 ? -20.9°
